OAO 2

Last updated on Sat Aug 15 2026 00:02:07 GMT+0000 (Coordinated Universal Time)

1 03597U 68110A 26226.62279358 .00000093 00000+0 30117-4 0 9997 2 03597 34.9932 103.3903 0005167 16.8815 343.2047 14.47370613 41995
UTC large
Height (km)
Speed (km/s)
/
Latitude / Longitude
Inclination (degrees)
Orbital Period (minutes)
Azimuth
Elevation
Range (km)
Doppler Factor

Next 0 passes for location: London (51.5072 / 0.1276)

No passes found over London.
OAO 2